Oelwein, IA

12:42 PM CST on December 08, 2019 (GMT -0600)
Oelwein Municipal

Weather History for KOLZ - October, 2019

Change the Weather History Date:

Saturday, October 26, 2019

  Actual Average Record
Temperature  
Mean Temperature 38 °F -  
Max Temperature 48 °F 57 °F 80 °F (1955)
Min Temperature 28 °F 35 °F 16 °F (1962)
Degree Days  
Heating Degree Days 27    
Moisture  
Dew Point 33 °F    
Average Humidity 86    
Maximum Humidity 100    
Minimum Humidity 57    
Precipitation  
Precipitation 0.00 in - - ()
Sea Level Pressure  
Sea Level Pressure 29.90 in    
Wind  
Wind Speed 7 mph (SE)    
Max Wind Speed 17 mph    
Max Gust Speed -    
Visibility 10 miles    
Events      
Averages and records for this station are not official NWS values.
T = Trace of Precipitation, MM = Missing Value Source: NWS Daily Summary

Daily Weather History Graph

Daily Weather History Graph

Search for Another Location

Airport or City:

Astronomy

Oct. 26, 2019 Rise Set
Actual Time 7:34 AM CDT 6:08 PM CDT
Civil Twilight 7:05 AM CDT 6:37 PM CDT
Nautical Twilight 6:32 AM CDT 7:10 PM CDT
Astronomical Twilight 5:59 AM CDT 7:43 PM CDT
Moon 5:25 AM CDT (10/26) 5:48 PM CDT (10/26)
Length of Visible Light 11h 32m
Length of Day
10h 34m
Waning Crescent, 3% of the Moon is Illuminated
Oct 26
Waning Crescent
Oct 27
New
Nov 4
First Quarter
Nov 12
Full
Nov 19
Last Quarter

Hourly Weather History & Observations

Time (CDT) Temp. Windchill Dew Point Humidity Pressure Visibility Wind Dir Wind Speed Gust Speed Precip Events Conditions
12:15 AM 32.0 °F 25.6 °F 28.4 °F 87% 30.15 in 10.0 mi SSE 6.9 mph - N/A   Clear
12:35 AM 32.0 °F 25.6 °F 28.4 °F 87% 30.14 in 10.0 mi South 6.9 mph - N/A   Clear
12:55 AM 32.0 °F 24.8 °F 30.2 °F 93% 30.14 in 10.0 mi South 8.1 mph - N/A   Clear
1:15 AM 32.0 °F 25.6 °F 30.2 °F 93% 30.13 in 10.0 mi SSE 6.9 mph - N/A   Clear
1:35 AM 30.2 °F 23.4 °F 30.2 °F 100% 30.12 in 10.0 mi SSE 6.9 mph - N/A   Clear
1:55 AM 30.2 °F 23.4 °F 30.2 °F 100% 30.12 in 10.0 mi South 6.9 mph - N/A   Clear
2:15 AM 32.0 °F 24.8 °F 30.2 °F 93% 30.12 in 10.0 mi South 8.1 mph - N/A   Clear
2:35 AM 32.0 °F 24.8 °F 30.2 °F 93% 30.11 in 10.0 mi SSE 8.1 mph - N/A   Clear
2:55 AM 30.2 °F 23.4 °F 30.2 °F 100% 30.11 in 10.0 mi South 6.9 mph - N/A   Clear
3:15 AM 30.2 °F 24.3 °F 30.2 °F 100% 30.10 in 10.0 mi SSE 5.8 mph - N/A   Clear
3:35 AM - - - N/A% 30.09 in 10.0 mi SSE 6.9 mph - N/A   Clear
3:55 AM - - - N/A% 30.09 in 10.0 mi SSE 6.9 mph - N/A   Clear
4:15 AM 30.2 °F 22.6 °F 30.2 °F 100% 30.08 in 10.0 mi SSE 8.1 mph - N/A   Clear
4:35 AM 30.2 °F 23.4 °F 30.2 °F 100% 30.08 in 10.0 mi SSE 6.9 mph - N/A   Clear
4:55 AM 30.2 °F 23.4 °F 30.2 °F 100% 30.07 in 10.0 mi SSE 6.9 mph - N/A   Clear
5:15 AM 30.2 °F 23.4 °F 30.2 °F 100% 30.07 in 10.0 mi SSE 6.9 mph - N/A   Clear
5:35 AM 28.4 °F 22.2 °F 28.4 °F 100% 30.06 in 10.0 mi SSE 5.8 mph - N/A   Clear
5:55 AM 28.4 °F 21.2 °F 28.4 °F 100% 30.05 in 10.0 mi SSE 6.9 mph - N/A   Clear
6:15 AM 28.4 °F 21.2 °F 28.4 °F 100% 30.04 in 10.0 mi SE 6.9 mph - N/A   Clear
6:35 AM 28.4 °F 21.2 °F 28.4 °F 100% 30.03 in 10.0 mi SE 6.9 mph - N/A   Clear
6:55 AM 28.4 °F 21.2 °F 28.4 °F 100% 30.02 in 10.0 mi SE 6.9 mph - N/A   Clear
7:15 AM 28.4 °F 21.2 °F 28.4 °F 100% 30.03 in 10.0 mi SE 6.9 mph - N/A   Clear
7:35 AM 28.4 °F 22.2 °F 28.4 °F 100% 30.01 in 10.0 mi SE 5.8 mph - N/A   Clear
7:55 AM 28.4 °F 22.2 °F 28.4 °F 100% 30.00 in 10.0 mi ESE 5.8 mph - N/A   Clear
8:15 AM 30.2 °F 24.3 °F 30.2 °F 100% 29.99 in 10.0 mi ESE 5.8 mph - N/A   Clear
8:35 AM 32.0 °F 25.6 °F 32.0 °F 100% 29.99 in 10.0 mi SE 6.9 mph - N/A   Clear
8:55 AM 33.8 °F 28.6 °F 32.0 °F 93% 29.99 in 10.0 mi SE 5.8 mph - N/A   Clear
9:15 AM 35.6 °F 29.9 °F 33.8 °F 93% 29.98 in 10.0 mi SE 6.9 mph - N/A   Clear
9:35 AM 37.4 °F 30.8 °F 33.8 °F 87% 29.97 in 10.0 mi SE 9.2 mph - N/A   Clear
9:55 AM 39.2 °F 33.0 °F 35.6 °F 87% 29.96 in 10.0 mi SE 9.2 mph - N/A   Clear
10:15 AM 39.2 °F 32.5 °F 33.8 °F 81% 29.94 in 10.0 mi SE 10.4 mph - N/A   Clear
10:35 AM 41.0 °F 34.3 °F 33.8 °F 76% 29.95 in 10.0 mi SSE 11.5 mph - N/A   Clear
10:55 AM 42.8 °F 34.8 °F 33.8 °F 70% 29.95 in 10.0 mi SE 17.3 mph - N/A   Clear
11:15 AM 44.6 °F 37.8 °F 33.8 °F 66% 29.94 in 10.0 mi SE 15.0 mph - N/A   Clear
11:35 AM 44.6 °F 38.4 °F 32.0 °F 61% 29.94 in 10.0 mi SE 12.7 mph - N/A   Clear
11:55 AM 44.6 °F 37.8 °F 32.0 °F 61% 29.93 in 10.0 mi SSE 15.0 mph - N/A   Clear
12:15 PM 44.6 °F 38.8 °F 32.0 °F 61% 29.92 in 10.0 mi SE 11.5 mph - N/A   Clear
12:35 PM 44.6 °F 38.1 °F 32.0 °F 61% 29.91 in 10.0 mi SE 13.8 mph - N/A   Clear
12:55 PM 46.4 °F 41.1 °F 32.0 °F 57% 29.89 in 10.0 mi SSE 11.5 mph - N/A   Clear
1:15 PM 46.4 °F 42.9 °F 33.8 °F 62% 29.87 in 10.0 mi SE 6.9 mph - N/A   Clear
1:35 PM 46.4 °F 41.9 °F 33.8 °F 62% 29.86 in 10.0 mi SE 9.2 mph - N/A   Clear
1:55 PM 46.4 °F 42.9 °F 33.8 °F 62% 29.85 in 10.0 mi SSE 6.9 mph - N/A   Clear
2:15 PM 48.2 °F - 33.8 °F 58% 29.83 in 10.0 mi SE 4.6 mph - N/A   Clear
2:55 PM 48.2 °F - 35.6 °F 62% 29.80 in 10.0 mi Variable 6.9 mph - N/A   Clear
3:15 PM 48.2 °F - 35.6 °F 62% 29.80 in 10.0 mi ESE 8.1 mph - N/A   Clear
3:35 PM 48.2 °F - 35.6 °F 62% 29.79 in 10.0 mi East 9.2 mph - N/A   Clear
3:55 PM 48.2 °F - 35.6 °F 62% 29.79 in 10.0 mi SE 6.9 mph - N/A   Clear
4:15 PM 48.2 °F - 37.4 °F 66% 29.78 in 10.0 mi East 6.9 mph - N/A   Clear
4:35 PM 48.2 °F - 37.4 °F 66% 29.78 in 10.0 mi East 8.1 mph - N/A   Clear
4:55 PM 46.4 °F 44.3 °F 37.4 °F 71% 29.78 in 10.0 mi East 4.6 mph - N/A   Clear
5:15 PM 46.4 °F 43.5 °F 39.2 °F 76% 29.77 in 10.0 mi East 5.8 mph - N/A   Clear
5:35 PM 46.4 °F 42.9 °F 39.2 °F 76% 29.75 in 10.0 mi East 6.9 mph - N/A   Clear
5:55 PM 44.6 °F 40.7 °F 39.2 °F 81% 29.74 in 10.0 mi ENE 6.9 mph - N/A   Clear
6:15 PM 44.6 °F 40.7 °F 39.2 °F 81% 29.75 in 10.0 mi ENE 6.9 mph - N/A   Clear
6:35 PM 42.8 °F 38.6 °F 39.2 °F 87% 29.74 in 10.0 mi ENE 6.9 mph - N/A   Partly Cloudy
6:55 PM 42.8 °F 39.3 °F 39.2 °F 87% 29.73 in 10.0 mi NE 5.8 mph - N/A   Mostly Cloudy
7:15 PM 41.0 °F 36.4 °F 39.2 °F 93% 29.72 in 10.0 mi ENE 6.9 mph - N/A   Partly Cloudy
7:35 PM 41.0 °F 38.0 °F 39.2 °F 93% 29.71 in 10.0 mi NE 4.6 mph - N/A   Clear
7:55 PM 39.2 °F 37.0 °F 39.2 °F 100% 29.71 in 10.0 mi NNE 3.5 mph - N/A   Partly Cloudy
8:15 PM 41.0 °F 39.0 °F 39.2 °F 93% 29.70 in 10.0 mi NNE 3.5 mph - N/A   Partly Cloudy
8:35 PM 41.0 °F 39.0 °F 39.2 °F 93% 29.69 in 10.0 mi ENE 3.5 mph - N/A   Partly Cloudy
8:55 PM 39.2 °F 35.9 °F 37.4 °F 93% 29.69 in 10.0 mi ENE 4.6 mph - N/A   Clear
9:15 PM 39.2 °F - 37.4 °F 93% 29.71 in 10.0 mi Calm Calm - N/A   Clear
9:35 PM 39.2 °F 35.9 °F 37.4 °F 93% 29.69 in 10.0 mi NE 4.6 mph - N/A   Clear
9:55 PM 37.4 °F 33.8 °F 37.4 °F 100% 29.71 in 10.0 mi ENE 4.6 mph - N/A   Clear
10:15 PM 37.4 °F - 37.4 °F 100% 29.71 in 9.0 mi Calm Calm - N/A   Clear
10:35 PM 32.0 °F 26.4 °F 32.0 °F 100% 29.72 in 6.0 mi NW 5.8 mph - N/A   Clear
10:55 PM 32.0 °F 27.5 °F 32.0 °F 100% 29.71 in 7.0 mi North 4.6 mph - N/A   Clear
11:15 PM 32.0 °F 26.4 °F 32.0 °F 100% 29.71 in 7.0 mi NW 5.8 mph - N/A   Clear
11:35 PM 32.0 °F 25.6 °F 32.0 °F 100% 29.71 in 6.0 mi NW 6.9 mph - N/A   Clear
11:55 PM 32.0 °F 25.6 °F 32.0 °F 100% 29.71 in 5.0 mi NW 6.9 mph - N/A   Clear